Hourly Data Report for July 29, 2017

TORONTO CITY
ONTARIO

43°40'00.000" N
79°24'00.000" W
112.50 m
6158355
71508
XTO

Download Data

Hourly Data (July 2017)
Hourly Data Report for July 29, 2017
TIME
LST
Temp Definition
°C
Dew Point Definition
°C
Rel Hum Definition
%
Precip. Amount Definition
mm

Wind Dir Definition
10's deg

Wind Spd Definition
km/h
Visibility Definition
km
Stn Press Definition
kPa
Hmdx Definition


Wind Chill Definition


Weather Definition


00:00 17.5 12.0 70 0.0 LegendMM LegendMM   100.16     LegendNANA
01:00 17.3 12.6 74 0.0 LegendMM LegendMM   100.15     LegendNANA
02:00 16.8 13.1 79 0.0 LegendMM LegendMM   100.14     LegendNANA
03:00 16.6 12.8 78 0.0 LegendMM LegendMM   100.09     LegendNANA
04:00 17.6 12.0 70 0.0 LegendMM LegendMM   100.15     LegendNANA
05:00 17.4 11.5 68 0.0 LegendMM LegendMM   100.19     LegendNANA
06:00 17.8 10.8 64 0.0 LegendMM LegendMM   100.26     LegendNANA
07:00 18.5 10.8 61 0.0 LegendMM LegendMM   100.33     LegendNANA
08:00 20.6 10.8 53 0.0 LegendMM LegendMM   100.35     LegendNANA
09:00 22.6 12.0 51 0.0 LegendMM LegendMM   100.38 25   LegendNANA
10:00 24.3 9.2 38 0.0 LegendMM LegendMM   100.39 25   LegendNANA
11:00 25.6 11.0 40 0.0 LegendMM LegendMM   100.35 27   LegendNANA
12:00 25.5 11.2 41 0.0 LegendMM LegendMM   100.31 27   LegendNANA
13:00 23.3 12.1 49 0.0 LegendMM LegendMM   100.30 26   LegendNANA
14:00 23.9 12.6 49 0.0 LegendMM LegendMM   100.28 26   LegendNANA
15:00 23.0 11.8 49 0.0 LegendMM LegendMM   100.27 25   LegendNANA
16:00 24.2 13.0 50 0.0 LegendMM LegendMM   100.24 27   LegendNANA
17:00 23.6 13.1 52 0.0 LegendMM LegendMM   100.24 26   LegendNANA
18:00 26.5 12.5 42 0.0 LegendMM LegendMM   100.23 29   LegendNANA
19:00 25.3 12.0 44 0.0 LegendMM LegendMM   100.24 28   LegendNANA
20:00 24.0 11.9 47 0.0 LegendMM LegendMM   100.26 26   LegendNANA
21:00 23.7 10.9 44 0.0 LegendMM LegendMM   100.29 25   LegendNANA
22:00 23.1 11.4 48 0.0 LegendMM LegendMM   100.28 25   LegendNANA
23:00 22.7 11.6 50 0.0 LegendMM LegendMM   100.29 25   LegendNANA

Notes on Data Quality.

Legend

  • E = Estimated
  • M = Missing
  • NA = Not Available*
  • [empty] = Indicates an unobserved value
Date modified: